WEINA 1B

Satellite information

Favourite Embed

Satellite Type and Status

PAYLOADIN ORBIT

Key statistics

Satellite WEINA 1B at a glance.

Uptime

2758

Days in orbit

Revolutions

≈ 13.5

Per day

Orbit

LEO

Low Earth Orbit

Inclination

63.4

Latest

Satellite identification and parameters

Extended collection of information and parameters for WEINA 1B.

Object identification

Identified? True

Debris? False

Object name: WEINA 1B

International designator: 2018-034E

Object number (NORAD): 43279

Object ID (CCSDS): 43279

Country: PEOPLES REPUBLIC OF CHINA (PRC)

Current information (Y/N): Y

RCS size: MEDIUM

Orbital parameters

Period: 107.036 minutes

Inclination: 63.3983 deg

SMA: 7467.573 km

Apoapsis: 1279.399 km

Periapsis: 899.477 km

RAAN: 329.0646 deg

Eccentricy: 0.02543812

Argument of periapsis: 7.1468 deg

Mean anomaly: 353.3075 deg

Mean motion: 13.45344654 rev/day

Mean motion (dot): -0.00000016 rev/day2

B* drag term: 0.00010377298 1/REarth

Two-line elements (TLE)

Creation date: Oct. 28, 2025, 2:18 a.m.

Reference frame: TEME

Reference center: EARTH

Epoch: Oct. 28, 2025, 12:31 a.m. UTC

TLE line 0: 0 WEINA 1B

TLE line 1: 1 43279U 18034E 25301.02187862 -.00000016 00000-0 10377-3 0 9995

TLE line 2: 2 43279 63.3983 329.0646 0254381 7.1468 353.3075 13.45344654370979

Live tracking on map

Real-time ground track for satellite WEINA 1B.

In-orbit conjunctions

There are no conjunctions computed for WEINA 1B, at the moment. Check back to stay up to date, as we update our databases every day.

Go to all conjunctions

Associated space launch

WEINA 1B was lifted into orbit during the mission ‘Long March 4C | 3 x Yaogan-31-01’, on board a Long March 4C space rocket.

The launch took place on April 10, 2018, 4:25 a.m. from Launch Area 4 (SLS-2 / 603).

For more information about the launch, click the button.

Launch to space Long March 4C | 3 x Yaogan-31-01
Long March 4C | 3 x Yaogan-31-01

Agency: N/A

Status: Launch Successful

Launch date: April 10, 2018, 4:25 a.m. UTC

Rocket: Long March 4C

Launch pad: Launch Area 4 (SLS-2 / 603)

Location: Jiuquan Satellite Launch Center, People's Republic of China

...

Latest news about this satellite

There are no fresh news available about this satellite. Check back as we update our databases every day.


Newsletter sign-up

Weekly statistics, charts and insights to help you stay on top of the space industry.